Terug naar catalogus

STARLINK-30558

ActiefCommunicatieVLEO
NORAD 58060·PAYLOAD·🇺🇸 United States

Gelanceerd Oct 13, 2023 vanaf Cape Canaveral Space Force Station

Loading…

Volgende Passages (komende 24 uur)

TLE

VersSource: CelesTrak SupGP

Epoch: Sep 14, 2026, 22:24 UTC

1 58060C 23158K   26257.93381944  .00013528  00000+0  48987-3 0  2575
2 58060  43.0025  38.5450 0001495 269.5232 297.9136 15.27578777    12

Volg STARLINK-30558 in realtime met AllMySat

Download on the App Store